Location: アルンシュタイン
(50.0000°N, 10.0000°E)
Time: 16:43:57
(UTC+02:00)

Vanguard 1 - Pass Details

Date: 16 September 2024
Orbit: 649 x 3825 km, 34.3° (Epoch: 02 October)

Event Time Altitude Azimuth Distance (km) Brightness Sun altitude
Rises 15:39:02 0° 248° (WSW) 5,324 14.7 33.4°
Reaches altitude 10° 15:43:59 10° 236° (SW) 3,734 14.5 32.8°
Maximum altitude 15:50:21 22° 190° (S) 2,212 12.9 32.0°
Drops below altitude 10° 15:54:50 10° 140° (SE) 2,519 12.3 31.5°
Sets 15:57:25 0° 123° (ESE) 3,230 12.6 31.2°
